[[{"header":{"parameterUnit":"m.s-1","parameterCategory":1,"la1":30.2991,"la2":30.254,"lo1":-89.0895,"lo2":-89.0444,"dy":0.0017,"dx":0.0017,"nx":28,"ny":28,"refTime":"2024-08-26T03:00:00:Z","depth":0,"parameterNumber":2,"parameterNumberName":"U-component_of_WINDS"},"data":[0,0,0,0,0,0,0,0,0,0,0,0,0,0,0,0,0,0,0,0,0,0,0,0,0,0,0,0,0,0,0,0,0,0,0,0,0,0,0,0,0,0,0,0,0,0,0,0,0,0,0,0,0,0,0,0,0,0,-0.5376,-0.5376,0,-0.5404,-0.5404,-0.5405,-0.538,-0.5379,-0.5378,-0.5377,-0.5407,-0.5409,-0.5411,0,0,0,0,0,0,0,0,0,0,0,0,0,-0.5303,-0.5305,-0.5376,-0.5376,-0.5377,-0.5404,-0.5404,-0.5405,-0.538,-0.5379,-0.5378,-0.5377,-0.5407,-0.5409,-0.5411,0,0,0,0,0,0,0,0,0,0,0,0,0,-0.5333,-0.5305,-0.5376,-0.5368,-0.5367,-0.5404,-0.5404,-0.5405,-0.5381,-0.5379,-0.5378,-0.5376,-0.5406,-0.5409,-0.5411,-0.5457,0,0,-0.5419,-0.542,0,0,0,0,0,0,0,0,-0.5332,-0.5336,-0.5369,-0.5368,-0.5368,-0.5387,-0.539,-0.5422,-0.5381,-0.5376,-0.5377,-0.5376,-0.5402,-0.5405,-0.5413,-0.5459,-0.546,-0.5419,-0.5421,-0.5422,-0.5423,0,0,0,0,0,0,0,-0.533,-0.5335,-0.5387,-0.5369,-0.5369,-0.5363,-0.5366,-0.5396,-0.5397,-0.5376,-0.5374,-0.5378,-0.5401,-0.5411,-0.5414,-0.5461,-0.5419,-0.5422,-0.5423,-0.5424,-0.5546,-0.5548,0,0,0,0,0,0,-0.5328,-0.5333,-0.5386,-0.5388,-0.5346,-0.5366,-0.5369,-0.5383,-0.5397,-0.5397,-0.5379,-0.5377,-0.5407,-0.5411,-0.5415,-0.5471,-0.5422,-0.5424,-0.5426,-0.5545,-0.5547,-0.5549,0,0,0,0,0,0,-0.5327,-0.5333,-0.5385,-0.536,-0.5366,-0.5369,-0.5384,-0.5384,-0.5393,-0.5399,-0.5399,-0.5389,-0.5406,-0.5411,-0.5447,-0.5471,-0.5426,-0.5428,-0.5543,-0.5545,-0.5548,-0.5582,0,0,0,0,0,0,-0.5325,-0.5333,-0.535,-0.5361,-0.5368,-0.5417,-0.5386,-0.5385,-0.5398,-0.5395,-0.5408,-0.5408,-0.5405,-0.5443,-0.545,-0.5474,-0.543,-0.5541,-0.5544,-0.5547,-0.5579,-0.5586,-0.5591,0,0,0,0,0,-0.5322,-0.5359,-0.5351,-0.5357,-0.5389,-0.5418,-0.5422,-0.5417,-0.54,-0.5417,-0.5421,-0.5408,-0.5468,-0.5447,-0.5454,-0.548,-0.5539,-0.5543,-0.5547,-0.5576,-0.5584,-0.5591,0,0,0,0,0,0,-0.5351,-0.536,-0.5351,-0.5392,-0.5405,-0.5414,-0.5436,-0.5426,-0.5444,-0.544,-0.5434,-0.5437,-0.5475,-0.5481,-0.5458,-0.5526,-0.5501,-0.5506,-0.5521,-0.5528,-0.5535,-0.5533,-0.5432,0,0,0,0,0,-0.5362,-0.5384,-0.5391,-0.5426,-0.5433,-0.5434,-0.5446,-0.5441,-0.5454,-0.5459,-0.5465,-0.5478,-0.55,-0.5514,-0.5535,-0.558,-0.5583,-0.5601,-0.5607,-0.5612,-0.5617,-0.5642,-0.565,-0.5561,-0.5561,-0.5561,0,0,-0.5386,-0.5393,-0.5407,-0.5433,-0.5441,-0.5465,-0.5438,-0.5464,-0.5482,-0.5463,-0.5497,-0.5503,-0.5517,-0.5558,-0.5576,-0.5564,-0.5642,-0.5617,-0.5621,-0.5623,-0.5647,-0.5655,-0.5663,-0.5564,-0.5563,-0.5563,0,0,-0.544,-0.5448,-0.5478,-0.5488,-0.5502,-0.5502,-0.5509,-0.552,-0.5523,-0.5557,-0.5544,-0.5565,-0.5602,-0.5613,-0.5624,-0.5683,-0.5672,-0.569,-0.5722,-0.5747,-0.5754,-0.576,-0.5782,-0.579,-0.5694,-0.5695,-0.5695,0,-0.5468,-0.5502,-0.5496,-0.5523,-0.5535,-0.5518,-0.555,-0.556,-0.5579,-0.5588,-0.5574,-0.5621,-0.5629,-0.5673,-0.5687,-0.5696,-0.5705,-0.5688,-0.5753,-0.576,-0.5765,-0.5786,-0.5795,-0.5697,-0.5696,-0.5696,-0.5696,0,-0.5536,-0.556,-0.5583,-0.5603,-0.5617,-0.5646,-0.5645,-0.566,-0.5654,-0.5656,-0.5692,-0.5701,-0.5724,-0.5734,-0.5728,-0.5777,-0.5769,-0.5754,-0.5729,-0.5776,-0.5796,-0.5804,-0.57,-0.5699,-0.5698,-0.5698,0,0,-0.561,-0.5625,-0.5634,-0.5643,-0.5657,-0.5676,-0.5705,-0.5726,-0.574,-0.5754,-0.5779,-0.5811,-0.5797,-0.5809,-0.5805,-0.5827,-0.5874,-0.5809,-0.5809,-0.5822,-0.593,-0.5941,-0.5951,-0.5867,-0.5868,-0.5869,-0.5929,0,-0.5666,-0.5716,-0.5711,-0.5758,-0.5781,-0.5766,-0.5791,-0.5803,-0.5806,-0.5826,-0.5829,-0.5852,-0.5832,-0.5839,-0.586,-0.5864,-0.5896,-0.5859,-0.589,-0.5892,-0.5888,-0.5961,-0.5973,-0.6029,-0.5936,-0.5937,-0.5938,0,-0.5738,-0.5755,-0.5804,-0.5815,-0.5825,-0.5848,-0.5867,-0.5886,-0.59,-0.59,-0.5914,-0.5906,-0.5936,-0.5909,-0.5951,-0.5926,-0.5938,-0.5942,-0.5944,-0.5948,-0.5919,-0.5967,-0.6046,-0.6055,-0.595,-0.5949,-0.5948,0,-0.5788,-0.5823,-0.5858,-0.5865,-0.5879,-0.5895,-0.5902,-0.5914,-0.5927,-0.5944,-0.5953,-0.5974,-0.5985,-0.6002,-0.6,-0.598,-0.6042,-0.6016,-0.6044,-0.6045,-0.6059,-0.6058,-0.6142,-0.6065,-0.6065,-0.6065,-0.6065,0,-0.5852,-0.5883,-0.588,-0.5902,-0.5937,-0.5931,-0.5966,-0.597,-0.5981,-0.6004,-0.5991,-0.6013,-0.6009,-0.603,-0.6029,-0.6064,-0.6069,-0.6071,-0.6071,-0.6073,-0.6073,-0.6082,-0.6078,-0.6067,-0.6067,-0.6066,-0.6066,0,-0.5915,-0.5914,-0.5951,-0.596,-0.5963,-0.5989,-0.5997,-0.6018,-0.6019,-0.6048,-0.6054,-0.6057,-0.6082,-0.6082,-0.611,-0.6109,-0.6153,-0.6147,-0.6148,-0.6147,-0.6177,-0.6175,-0.627,-0.6283,-0.6197,-0.6198,-0.6198,0,-0.5956,-0.598,-0.5992,-0.6006,-0.6013,-0.6036,-0.6049,-0.6044,-0.6059,-0.6076,-0.6095,-0.6119,-0.6138,-0.6178,-0.6183,-0.6205,-0.6201,-0.6233,-0.6204,-0.6206,-0.6203,-0.6202,-0.6205,-0.6239,-0.624,-0.624,-0.6241,0,-0.6029,-0.6028,-0.6047,-0.6067,-0.6084,-0.6099,-0.6113,-0.6126,-0.6123,-0.614,-0.6165,-0.618,-0.6209,-0.6233,-0.6254,-0.6261,-0.6251,-0.625,-0.6258,-0.6261,-0.6261,-0.6263,-0.6165,-0.6248,-0.6247,-0.6247,-0.6246,-0.6246,-0.6083,-0.6104,-0.6116,-0.6139,-0.6148,-0.6162,-0.6182,-0.6186,-0.6207,-0.623,-0.6225,-0.6254,-0.6267,-0.6294,-0.6304,-0.6326,-0.6315,-0.6327,-0.633,-0.6333,-0.6337,-0.6257,-0.633,-0.633,-0.633,-0.633,-0.6329,0,-0.6158,-0.6164,-0.6185,-0.6205,-0.6223,-0.6211,-0.6226,-0.6242,-0.6267,-0.628,-0.6299,-0.6328,-0.6352,-0.6358,-0.6381,-0.6398,-0.6394,-0.6404,-0.6403,-0.6406,-0.6345,-0.6336,-0.6407,-0.6407,-0.6407,-0.6407,-0.6407,-0.6407,-0.6198,-0.6233,-0.6233,-0.6272,-0.6279,-0.6306,-0.6316,-0.6329,-0.6339,-0.6373,-0.6392,-0.6396,-0.6406,-0.643,-0.6451,-0.6452,-0.6462,-0.6474,-0.6474,-0.6417,-0.641,-0.6402,-0.6394,-0.6476,-0.6476,-0.6533,-0.6533,-0.6534]},{"header":{"parameterUnit":"m.s-1","parameterCategory":1,"la1":30.2991,"la2":30.254,"lo1":-89.0895,"lo2":-89.0444,"dy":0.0017,"dx":0.0017,"nx":28,"ny":28,"refTime":"2024-08-26T03:00:00:Z","depth":0,"parameterNumber":3,"parameterNumberName":"V-component_of_WINDS"},"data":[0,0,0,0,0,0,0,0,0,0,0,0,0,0,0,0,0,0,0,0,0,0,0,0,0,0,0,0,0,0,0,0,0,0,0,0,0,0,0,0,0,0,0,0,0,0,0,0,0,0,0,0,0,0,0,0,0,0,1.6359,1.6359,0,1.6362,1.6362,1.6362,1.6347,1.6346,1.6346,1.6345,1.6348,1.6348,1.6349,0,0,0,0,0,0,0,0,0,0,0,0,0,1.6338,1.6339,1.6359,1.6359,1.6359,1.6362,1.6362,1.6362,1.6347,1.6346,1.6345,1.6345,1.6348,1.6348,1.6349,0,0,0,0,0,0,0,0,0,0,0,0,0,1.6345,1.6339,1.6359,1.6352,1.6351,1.6362,1.6362,1.6362,1.6347,1.6346,1.6345,1.6345,1.6348,1.6348,1.6349,1.6367,0,0,1.6351,1.6352,0,0,0,0,0,0,0,0,1.6345,1.6346,1.6353,1.6352,1.6351,1.6353,1.6356,1.6364,1.6347,1.6348,1.6345,1.6344,1.635,1.6351,1.6353,1.6368,1.6368,1.6351,1.6352,1.6352,1.6352,0,0,0,0,0,0,0,1.6344,1.6346,1.636,1.6353,1.6352,1.6348,1.6348,1.6358,1.6353,1.6348,1.6347,1.6348,1.635,1.6352,1.6353,1.6368,1.6351,1.6352,1.6353,1.6353,1.6398,1.6398,0,0,0,0,0,0,1.6345,1.6345,1.636,1.636,1.6346,1.6349,1.6349,1.6353,1.6353,1.6352,1.6348,1.6347,1.6351,1.6352,1.6353,1.6374,1.6352,1.6353,1.6353,1.6397,1.6398,1.6398,0,0,0,0,0,0,1.6345,1.6346,1.636,1.6353,1.6354,1.635,1.6355,1.6354,1.6356,1.6353,1.6352,1.6351,1.6351,1.6352,1.6364,1.6374,1.6353,1.6354,1.6396,1.6397,1.6398,1.6417,0,0,0,0,0,0,1.6344,1.6346,1.6353,1.6353,1.6354,1.6371,1.6356,1.6354,1.6358,1.6356,1.6356,1.6355,1.635,1.6363,1.6365,1.6374,1.6354,1.6395,1.6396,1.6398,1.6415,1.6418,1.6421,0,0,0,0,0,1.6343,1.6358,1.6354,1.6356,1.6363,1.6372,1.6373,1.6367,1.6358,1.6365,1.6363,1.6355,1.6373,1.6364,1.6366,1.6376,1.6394,1.6396,1.6398,1.6414,1.6417,1.6421,0,0,0,0,0,0,1.6359,1.6358,1.6353,1.6368,1.637,1.6369,1.6377,1.6371,1.6375,1.6374,1.6366,1.6366,1.638,1.6379,1.637,1.6394,1.6382,1.6384,1.6394,1.6397,1.64,1.6399,1.6355,0,0,0,0,0,1.6365,1.6372,1.637,1.6384,1.6385,1.6381,1.6385,1.638,1.6382,1.6383,1.6382,1.6384,1.6389,1.6393,1.6399,1.6415,1.6415,1.6423,1.6426,1.6429,1.643,1.6439,1.6442,1.6404,1.6404,1.6404,0,0,1.6376,1.6376,1.6381,1.6387,1.6388,1.6396,1.6382,1.6391,1.6396,1.6384,1.6395,1.6395,1.6396,1.6411,1.6417,1.6411,1.6441,1.6431,1.6433,1.6433,1.6441,1.6444,1.6448,1.6405,1.6405,1.6405,0,0,1.64,1.6401,1.6412,1.6414,1.6416,1.6413,1.6416,1.6416,1.6415,1.6426,1.6417,1.6424,1.6434,1.6436,1.6438,1.6463,1.6455,1.6465,1.648,1.6488,1.6491,1.6494,1.6502,1.6505,1.6467,1.6467,1.6467,0,1.6413,1.6424,1.6419,1.6428,1.6431,1.6421,1.6432,1.6434,1.6437,1.644,1.6433,1.6446,1.6446,1.6461,1.6467,1.6469,1.6472,1.6464,1.6491,1.6494,1.6496,1.6504,1.6507,1.6468,1.6468,1.6468,1.6468,0,1.644,1.6448,1.6457,1.6461,1.6465,1.6475,1.6471,1.6476,1.6472,1.647,1.6481,1.6482,1.6487,1.649,1.6486,1.6504,1.65,1.6493,1.648,1.6501,1.6508,1.6511,1.647,1.6469,1.6469,1.6469,0,0,1.6473,1.6475,1.6478,1.648,1.6481,1.6487,1.6497,1.6503,1.6507,1.651,1.6518,1.6527,1.652,1.6523,1.6518,1.6526,1.6545,1.6517,1.6517,1.6522,1.6565,1.657,1.6574,1.6541,1.6541,1.6542,1.6565,0,1.6496,1.6513,1.6509,1.6525,1.6533,1.6524,1.6532,1.6534,1.6533,1.6539,1.6537,1.6544,1.6535,1.6536,1.6543,1.6541,1.6554,1.654,1.6547,1.6548,1.6546,1.6578,1.6583,1.6605,1.6568,1.6568,1.6568,0,1.6525,1.6529,1.6547,1.6548,1.6551,1.6558,1.6563,1.6569,1.6571,1.657,1.6573,1.6567,1.6577,1.6565,1.6578,1.6569,1.6572,1.6572,1.6572,1.6572,1.6559,1.6578,1.6611,1.6614,1.6573,1.6573,1.6572,0,1.6546,1.6557,1.6569,1.6571,1.6572,1.6578,1.6578,1.658,1.6584,1.6588,1.659,1.6595,1.6598,1.6602,1.6598,1.659,1.6611,1.6599,1.661,1.661,1.6614,1.6614,1.6648,1.6617,1.6617,1.6617,1.6617,0,1.6572,1.6583,1.6578,1.6586,1.6598,1.6593,1.6605,1.6605,1.6606,1.6613,1.6606,1.6613,1.6607,1.6613,1.661,1.6621,1.6623,1.6621,1.662,1.6621,1.6622,1.6623,1.6621,1.6618,1.6618,1.6618,1.6618,0,1.6597,1.6595,1.6607,1.6608,1.6608,1.6617,1.6618,1.6624,1.6623,1.6632,1.6633,1.6631,1.6638,1.6634,1.6642,1.6639,1.6654,1.6651,1.6653,1.6652,1.6662,1.6661,1.6698,1.6702,1.667,1.667,1.667,0,1.6613,1.6622,1.6623,1.6628,1.6629,1.6636,1.664,1.6636,1.664,1.6643,1.6649,1.6656,1.666,1.6672,1.667,1.6676,1.6673,1.6685,1.6673,1.6674,1.6672,1.6671,1.6672,1.6687,1.6688,1.6688,1.6688,0,1.6642,1.664,1.6646,1.6652,1.6656,1.6661,1.6664,1.6668,1.6664,1.6669,1.6676,1.668,1.6687,1.6693,1.6698,1.6699,1.6693,1.6692,1.6695,1.6696,1.6696,1.6695,1.6658,1.6691,1.6691,1.6691,1.669,1.669,1.6662,1.6669,1.6672,1.6679,1.6681,1.6684,1.6691,1.669,1.6696,1.6702,1.6699,1.6708,1.671,1.6716,1.6717,1.6723,1.6718,1.6722,1.6723,1.6724,1.6725,1.6696,1.6724,1.6724,1.6724,1.6724,1.6724,0,1.669,1.6691,1.6698,1.6703,1.6708,1.6703,1.6707,1.6711,1.6719,1.6721,1.6726,1.6735,1.6741,1.674,1.6746,1.6751,1.6748,1.6752,1.6752,1.6752,1.6729,1.6726,1.6755,1.6755,1.6755,1.6755,1.6755,1.6755,1.6705,1.6716,1.6715,1.6728,1.6729,1.6737,1.674,1.6743,1.6745,1.6754,1.676,1.676,1.6761,1.6767,1.6772,1.6772,1.6774,1.6779,1.6778,1.6756,1.6753,1.675,1.6747,1.678,1.678,1.6799,1.6799,1.68]}]]